{"data":{"norad_id":64216,"intl_designator":"2025-117P","name":"STARLINK-34296","alt_names":[],"object_type":"PAYLOAD","status":"ACTIVE","operator":null,"country":"US","launch_date":"2025-05-31","launch_site_code":"AFWTR","launch_vehicle":null,"mission":null,"orbit_class":"UNKNOWN","rcs_meters":null,"size_class":null,"mass_kg":null,"dimensions":null,"purposes":["comms"],"wikipedia_slug":null,"has_3d_model":false,"image_url":null,"decayed_at":null,"tle_current":{"epoch":"2026-05-25T00:24:53.200224Z","epoch_age_seconds":63742,"freshness":"FRESH","line1":"1 64216U 25117P   26145.01728241  .00016078  00000+0  55363-3 0  9994","line2":"2 64216  53.1584  44.9379 0001326 100.6429 259.4721 15.30210251 56244","mean_motion":15.30210251,"eccentricity":0.0001326,"inclination_deg":53.1584,"raan_deg":44.9379,"arg_perigee_deg":100.6429,"mean_anomaly_deg":259.4721,"bstar":0.00055363,"rev_number":5624,"period_min":94.104715287259,"perigee_km":474.27571152609,"apogee_km":476.0932123778,"semimajor_km":6853.3214619519,"source":"CELESTRAK","updated_at":"2026-05-25T13:38:20.319775Z"}}}